Regional Weather Roundup
Issued by NWS

Home | Current Version | Previous Version | Graphics & Text | Print | Product List | Glossary On
Versions: 1 2 3 4 5 6 7 8 9 10 11 12 13 14 15 16 17 18 19 20 21 22 23 24 25 26 27 28 29 30 31 32 33 34 35 36 37 38 39 40 41 42 43 44 45 46 47 48 49 50
173
ASUS45 KCYS 202210
RWRWY

WYOMING REGIONAL WEATHER ROUNDUP
NATIONAL WEATHER SERVICE CHEYENNE WY
300 PM MST MON FEB 20 2017

NOTE:  "FAIR" INDICATES FEW OR NO CLOUDS BELOW 12,000 FEET
WITH NO SIGNIFICANT WEATHER AND/OR OBSTRUCTIONS TO VISIBILITY.

WYZ001-202300-
YELLOWSTONE NATIONAL PARK

CITY           SKY/WX    TMP DP  RH WIND       PRES   REMARKS
LK YELLOWSTONE   N/A     31  30  96 VRB3      29.85F
W YELLOWSTONE  NOT AVBL

$$
WYZ002>013-054>058-071-098>099-202300-
NORTHERN WYOMING

CITY           SKY/WX    TMP DP  RH WIND       PRES   REMARKS
JACKSON        CLOUDY    36  34  93 S18       29.92F WCI  25
CODY           FAIR      50  29  44 SW22G29   29.77S
GREYBULL       FAIR      52  28  39 SE17G24   29.76F
WORLAND        FAIR      54  32  43 S15       29.77F
SHERIDAN       FAIR      54  26  34 E10       29.70F
BUFFALO        FAIR      61  19  19 SW20G28   29.74F
GILLETTE       FAIR      59  24  26 SW25      29.76F
HULETT         FAIR      57  19  23 SW17G26   29.79F
NEWCASTLE      FAIR      59  18  20 SW16G23   29.84F

$$
WYZ014>020-022>026-101>103-202300-
CENTRAL WYOMING

CITY           SKY/WX    TMP DP  RH WIND       PRES   REMARKS
BIG PINEY      CLOUDY    30  26  85 CALM      30.02R
PINEDALE       CLOUDY    32  28  86 SE14      30.03S WCI  22
DUBOIS         CLOUDY    37  27  65 W18G35    29.88S WCI  27
LANDER         FAIR      53  25  33 SW26G40   29.81F
RIVERTON       FAIR      50  27  40 W17       29.87R
CASPER         FAIR      52  28  39 SW37G48   29.90S
DOUGLAS        FAIR      56  26  31 W31G39    29.90R

$$
WYZ021-027>030-104>119-202300-
SOUTHERN WYOMING

CITY           SKY/WX    TMP DP  RH WIND       PRES   REMARKS
EVANSTON       FAIR      39  28  64 W14       30.01S WCI  31
KEMMERER         N/A     37  30  75 SW10      30.02S WCI  30
FORT BRIDGER   MOCLDY    45  29  52 CALM      30.03S
ROCK SPRINGS   PTSUNNY   43  30  60 S9        30.03R
DIXON            N/A     45  34  65 SW16G24   30.14F
RAWLINS        FAIR      43  29  57 SW36G45   30.00R
SARATOGA       MOCLDY    45  27  49 S13G21    30.07F
LARAMIE        PTSUNNY   48  20  32 SW20G25   30.04R
CHEYENNE       FAIR      54  16  22 W25G37    30.00S
TORRINGTON     FAIR      62  18  18 W23G35    29.90F
PINE BLUFFS    FAIR      59  14  17 W18G41    29.98R

$$




USA.gov is the U.S. government's official web portal to all federal, state and local government web resources and services.